DELTA 1 DEB

Satellite information

Favourite Embed

Satellite Type and Status

DEBRISIN ORBIT

Key statistics

Satellite DELTA 1 DEB at a glance.

Uptime

17290

Days in orbit

Revolutions

≈ 13.8

Per day

Orbit

SSO

Sun Synchronous Orbit

Inclination

98.9

Latest

Satellite identification and parameters

Extended collection of information and parameters for DELTA 1 DEB.

Object identification

Identified? True

Debris? True

Object name: DELTA 1 DEB

International designator: 1978-026JA

Object number (NORAD): 37639

Object ID (CCSDS): 37639

Country: UNITED STATES OF AMERICA (US)

Current information (Y/N): Y

RCS size: SMALL

Orbital parameters

Period: 104.021 minutes

Inclination: 98.9115 deg

SMA: 7326.698 km

Apoapsis: 1032.291 km

Periapsis: 864.835 km

RAAN: 109.6403 deg

Eccentricy: 0.0114278

Argument of periapsis: 256.0249 deg

Mean anomaly: 257.8882 deg

Mean motion: 13.84332186 rev/day

Mean motion (dot): 0.00000116 rev/day2

B* drag term: 0.00013475 1/REarth

Two-line elements (TLE)

Creation date: July 5, 2025, 5:45 p.m.

Reference frame: TEME

Reference center: EARTH

Epoch: July 5, 2025, 6:35 a.m. UTC

TLE line 0: 0 DELTA 1 DEB

TLE line 1: 1 37639U 78026JA 25186.27451566 .00000116 00000-0 13475-3 0 9990

TLE line 2: 2 37639 98.9115 109.6403 0114278 256.0249 257.8882 13.84332186662426

Live tracking on map

Real-time ground track for satellite DELTA 1 DEB.

In-orbit conjunctions

A list of the most updated potential collisions computed for object DELTA 1 DEB.

Target Orbit TCA Probability of collision Miss distance Type
VANGUARD 3 MEO 2024-08-08 04:08:45 0.0001209027 811.0 (m) PAYLOAD
FENGYUN 1C DEB SSO 2024-07-22 20:22:12 0.000103754 341.0 (m) DEBRIS

Associated space launch

Earth observation satellite

DELTA 1 DEB was lifted into orbit during the mission ‘Delta 2910 | Landsat 3’, on board a Delta 2910 space rocket.

The launch took place on March 5, 1978, 5:54 p.m. from Space Launch Complex 2W.

For more information about the launch, click the button.

Launch to space Delta 2910 | Landsat 3
Delta 2910 | Landsat 3

Agency: N/A

Status: Launch Successful

Launch date: March 5, 1978, 5:54 p.m. UTC

Rocket: Delta 2910

Launch pad: Space Launch Complex 2W

Location: Vandenberg SFB, CA, USA

...

Latest news about this satellite

There are no fresh news available about this satellite. Check back as we update our databases every day.


Newsletter sign-up

Weekly statistics, charts and insights to help you stay on top of the space industry.